Regional Weather Roundup
Issued by NWS

Home | Current Version | Previous Version | Text Only | Print | Product List | Glossary On
Versions: 1 2 3 4 5 6 7 8 9 10 11 12 13 14 15 16 17 18 19 20 21 22 23 24 25 26 27 28 29 30 31 32 33 34 35 36 37 38 39 40 41 42 43 44 45 46 47 48 49 50
762
ASUS43 KTOP 121808
RWRKS

WEATHER ROUNDUP FOR KANSAS
NATIONAL WEATHER SERVICE GOODLAND KS
1200 PM CST FRI FEB 12 2016

NOTE:  "FAIR" INDICATES FEW OR NO CLOUDS BELOW 12,000 FEET WITH NO
SIGNIFICANT WEATHER AND/OR OBSTRUCTIONS TO VISIBILITY.

KSZ001>006-013>018-027>032-041>047-121900-
NORTHWEST KANSAS

CITY           SKY/WX    TMP DP  RH WIND       PRES   REMARKS
GOODLAND       CLOUDY    42  33  70 E14       30.38R
6HR MIN TEMP:  28; 6HR MAX TEMP:  44;

HAYS           CLOUDY    34  21  60 NE12      30.47R WCI  25
HILL CITY      CLOUDY    35  30  82 NE9       30.46R
6HR MIN TEMP:  24; 6HR MAX TEMP:  35;

RUSSELL        CLOUDY    31  27  85 N15       30.46R WCI  20
6HR MIN TEMP:  27; 6HR MAX TEMP:  31;

$$

KSZ061>065-074>080-084>089-121900-
SOUTHWEST KANSAS

CITY           SKY/WX    TMP DP  RH WIND       PRES   REMARKS
DODGE CITY     SUNNY     44  31  60 N15       30.41R
6HR MIN TEMP:  28; 6HR MAX TEMP:  44;

ELKHART          N/A     54  31  41 SE8         N/A
GARDEN CITY    SUNNY     48  32  53 NE8       30.39R
6HR MIN TEMP:  25; 6HR MAX TEMP:  48;

GREAT BEND     CLOUDY    30  21  69 N15       30.46R WCI  19
LIBERAL        SUNNY     52  34  50 E8        30.39S
PRATT          CLOUDY    34  26  75 N12       30.42S WCI  25
6HR MIN TEMP:  27; 6HR MAX TEMP:  34;

$$

KSZ066>073-081>083-090>101-121900-
SOUTHEAST KANSAS

CITY           SKY/WX    TMP DP  RH WIND       PRES   REMARKS
CHANUTE        SUNNY     41  25  53 N17G24    30.42S
6HR MIN TEMP:  28; 6HR MAX TEMP:  41;

COFFEYVILLE    SUNNY     44  26  49 N17       30.41S
6HR MIN TEMP:  24; 6HR MAX TEMP:  44;

HUTCHINSON     CLOUDY    33  26  75 N12       30.45R WCI  24
6HR MIN TEMP:  30; 6HR MAX TEMP:  33;

MEDICINE LODGE   N/A     41  29  62 N14       30.41R
NEWTON         CLOUDY    34  25  69 N18       30.45R WCI  23
PARSONS        SUNNY     42  26  53 N15G22    30.42S
6HR MIN TEMP:  29; 6HR MAX TEMP:  43;

WICHITA INTL   CLOUDY    37  26  64 N15       30.44R WCI  28
6HR MIN TEMP:  32; 6HR MAX TEMP:  38;

WICHITA JABRA  CLOUDY    35  26  69 NE15      30.43R WCI  25
6HR MIN TEMP:  29; 6HR MAX TEMP:  35;

WINFIELD       MOSUNNY   41  28  60 N17       30.43R
6HR MIN TEMP:  27; 6HR MAX TEMP:  42;

$$

KSZ007>012-019>026-033>040-048>060-102>105-121900-
NORTHEAST KANSAS

CITY           SKY/WX    TMP DP  RH WIND       PRES   REMARKS
CONCORDIA      CLOUDY    32  24  72 N9        30.48R
6HR MIN TEMP:  28; 6HR MAX TEMP:  32;

EMPORIA        CLOUDY    37  25  61 N15G21    30.44R WCI  28
6HR MIN TEMP:  24; 6HR MAX TEMP:  38;

LAWRENCE       MOSUNNY   38  23  55 N16       30.45R WCI  29
6HR MIN TEMP:  25; 6HR MAX TEMP:  38;

MANHATTAN      CLOUDY    34  25  69 N7        30.48R
6HR MIN TEMP:  28; 6HR MAX TEMP:  35;

MARYSVILLE     CLOUDY    30  23  74 N17       30.48R WCI  18
OLATHE IND     PTSUNNY   37  24  59 NW12G22   30.43S WCI  29
6HR MIN TEMP:  25; 6HR MAX TEMP:  37;

OLATHE EXE     SUNNY     36  22  56 NW14G25   30.42S WCI  27
6HR MIN TEMP:  27; 6HR MAX TEMP:  37;

SALINA         CLOUDY    34  24  67 NE14      30.49R WCI  25
6HR MIN TEMP:  28; 6HR MAX TEMP:  35;

TOPEKA BILLARD PTSUNNY   38  22  52 N10G20    30.46S WCI  31
6HR MIN TEMP:  28; 6HR MAX TEMP:  38;

TOPEKA FORBES  MOSUNNY   38  24  57 N14       30.44F WCI  30
6HR MIN TEMP:  25; 6HR MAX TEMP:  38;

$$




USA.gov is the U.S. government's official web portal to all federal, state and local government web resources and services.